contact:dominique.lefevre@mio.osupytheas.fr, maurice.libes@osupytheas.fr, didier.mallarino@osupytheas.fr
Project:EMSO http://www.emso-fr.org/EMSO-France
Depth: 2436.0 m
Title:EMSO Ligure Ouest : Data MII capteur MICROCAT
DateTime_Computer,Latitude,Longitude,Temperature,Conductivity,Pressure,DateTime_Instrument
DateTime_Computer,Latitude,Longitude,degC,S m-1,dbar,DateTime_Instrument
2021-01-10T00:02:03Z,42.805,6.029,13.2979,4.59982,2470.147,2021-1-10T02:03:04Z
2021-01-10T00:05:07Z,42.805,6.029,13.2972,4.59991,2470.147,2021-1-10T02:06:08Z
2021-01-10T00:08:10Z,42.805,6.029,13.2980,4.59986,2470.147,2021-1-10T02:09:11Z
2021-01-10T00:11:13Z,42.805,6.029,13.2979,4.59987,2470.156,2021-1-10T02:12:14Z
2021-01-10T00:14:16Z,42.805,6.029,13.2981,4.59986,2470.156,2021-1-10T02:15:17Z
2021-01-10T00:17:19Z,42.805,6.029,13.2979,4.59986,2470.147,2021-1-10T02:18:20Z
2021-01-10T00:20:22Z,42.805,6.029,13.2979,4.59990,2470.133,2021-1-10T02:21:23Z
2021-01-10T00:23:25Z,42.805,6.029,13.2976,4.59981,2470.147,2021-1-10T02:24:26Z
2021-01-10T00:26:28Z,42.805,6.029,13.2982,4.59984,2470.156,2021-1-10T02:27:29Z
2021-01-10T00:29:32Z,42.805,6.029,13.2981,4.59986,2470.147,2021-1-10T02:30:33Z
2021-01-10T00:32:35Z,42.805,6.029,13.2979,4.59985,2470.156,2021-1-10T02:33:36Z
2021-01-10T00:35:38Z,42.805,6.029,13.2974,4.59980,2470.171,2021-1-10T02:36:39Z
2021-01-10T00:38:41Z,42.805,6.029,13.2979,4.59980,2470.133,2021-1-10T02:39:42Z
2021-01-10T00:41:44Z,42.805,6.029,13.2979,4.59983,2470.147,2021-1-10T02:42:45Z
2021-01-10T00:44:47Z,42.805,6.029,13.2976,4.59981,2470.156,2021-1-10T02:45:48Z
2021-01-10T00:47:50Z,42.805,6.029,13.2979,4.59982,2470.133,2021-1-10T02:48:51Z
2021-01-10T00:50:53Z,42.805,6.029,13.2978,4.59982,2470.171,2021-1-10T02:51:54Z
2021-01-10T00:53:57Z,42.805,6.029,13.2980,4.59980,2470.171,2021-1-10T02:54:58Z
2021-01-10T00:57:00Z,42.805,6.029,13.2979,4.59986,2470.171,2021-1-10T02:58:01Z
2021-01-10T01:00:03Z,42.805,6.029,13.2984,4.59982,2470.171,2021-1-10T03:01:04Z
2021-01-10T01:03:06Z,42.805,6.029,13.2977,4.59984,2470.171,2021-1-10T03:04:07Z
2021-01-10T01:06:09Z,42.805,6.029,13.2980,4.59982,2470.156,2021-1-10T03:07:10Z
2021-01-10T01:09:12Z,42.805,6.029,13.2978,4.59980,2470.18,2021-1-10T03:10:13Z
2021-01-10T01:12:15Z,42.805,6.029,13.2976,4.59981,2470.156,2021-1-10T03:13:16Z
2021-01-10T01:15:18Z,42.805,6.029,13.2981,4.59984,2470.156,2021-1-10T03:16:19Z
2021-01-10T01:18:22Z,42.805,6.029,13.2974,4.59982,2470.18,2021-1-10T03:19:22Z
2021-01-10T01:21:25Z,42.805,6.029,13.2978,4.59981,2470.18,2021-1-10T03:22:26Z
2021-01-10T01:24:28Z,42.805,6.029,13.2979,4.59980,2470.18,2021-1-10T03:25:29Z
2021-01-10T01:27:31Z,42.805,6.029,13.2978,4.59982,2470.18,2021-1-10T03:28:32Z
2021-01-10T01:30:34Z,42.805,6.029,13.2979,4.59988,2470.18,2021-1-10T03:31:35Z
2021-01-10T01:33:37Z,42.805,6.029,13.2980,4.59981,2470.217,2021-1-10T03:34:38Z
2021-01-10T01:36:40Z,42.805,6.029,13.2981,4.59985,2470.18,2021-1-10T03:37:41Z
2021-01-10T01:39:43Z,42.805,6.029,13.2979,4.59985,2470.203,2021-1-10T03:40:44Z
2021-01-10T01:42:47Z,42.805,6.029,13.2976,4.59980,2470.18,2021-1-10T03:43:48Z
2021-01-10T01:45:50Z,42.805,6.029,13.2979,4.59980,2470.203,2021-1-10T03:46:51Z
2021-01-10T01:48:53Z,42.805,6.029,13.2978,4.59980,2470.24,2021-1-10T03:49:54Z
2021-01-10T01:51:56Z,42.805,6.029,13.2976,4.59980,2470.203,2021-1-10T03:52:57Z
2021-01-10T01:54:59Z,42.805,6.029,13.2974,4.59980,2470.18,2021-1-10T03:56:00Z
2021-01-10T01:58:02Z,42.805,6.029,13.2979,4.59983,2470.203,2021-1-10T03:59:03Z
2021-01-10T02:01:05Z,42.805,6.029,13.2979,4.59981,2470.203,2021-1-10T04:02:06Z
2021-01-10T02:04:08Z,42.805,6.029,13.2975,4.59983,2470.25,2021-1-10T04:05:09Z
2021-01-10T02:07:11Z,42.805,6.029,13.2978,4.59983,2470.217,2021-1-10T04:08:12Z
2021-01-10T02:10:15Z,42.805,6.029,13.2977,4.59981,2470.227,2021-1-10T04:11:16Z
2021-01-10T02:13:18Z,42.805,6.029,13.2977,4.59981,2470.217,2021-1-10T04:14:19Z
2021-01-10T02:16:21Z,42.805,6.029,13.2977,4.59980,2470.203,2021-1-10T04:17:22Z
2021-01-10T02:19:24Z,42.805,6.029,13.2974,4.59980,2470.18,2021-1-10T04:20:25Z
2021-01-10T02:22:27Z,42.805,6.029,13.2976,4.59983,2470.203,2021-1-10T04:23:28Z
2021-01-10T02:25:30Z,42.805,6.029,13.2978,4.59981,2470.264,2021-1-10T04:26:31Z
2021-01-10T02:28:33Z,42.805,6.029,13.2982,4.59981,2470.227,2021-1-10T04:29:34Z
2021-01-10T02:31:36Z,42.805,6.029,13.2978,4.59981,2470.227,2021-1-10T04:32:37Z
2021-01-10T02:34:40Z,42.805,6.029,13.2978,4.59981,2470.24,2021-1-10T04:35:41Z
2021-01-10T02:37:43Z,42.805,6.029,13.2979,4.59981,2470.203,2021-1-10T04:38:44Z
2021-01-10T02:40:46Z,42.805,6.029,13.2977,4.59982,2470.25,2021-1-10T04:41:47Z
2021-01-10T02:43:49Z,42.805,6.029,13.2972,4.59982,2470.25,2021-1-10T04:44:50Z
2021-01-10T02:46:52Z,42.805,6.029,13.2983,4.59983,2470.203,2021-1-10T04:47:53Z
2021-01-10T02:49:55Z,42.805,6.029,13.2978,4.59981,2470.25,2021-1-10T04:50:56Z
2021-01-10T02:52:58Z,42.805,6.029,13.2978,4.59980,2470.264,2021-1-10T04:53:59Z
2021-01-10T02:56:01Z,42.805,6.029,13.2979,4.59980,2470.25,2021-1-10T04:57:02Z
2021-01-10T02:59:05Z,42.805,6.029,13.2977,4.59983,2470.264,2021-1-10T05:00:06Z
2021-01-10T03:02:08Z,42.805,6.029,13.2976,4.59981,2470.227,2021-1-10T05:03:09Z
2021-01-10T03:05:11Z,42.805,6.029,13.2982,4.59982,2470.24,2021-1-10T05:06:12Z
2021-01-10T03:08:14Z,42.805,6.029,13.2981,4.59981,2470.25,2021-1-10T05:09:15Z
2021-01-10T03:11:17Z,42.805,6.029,13.2979,4.59981,2470.273,2021-1-10T05:12:18Z
2021-01-10T03:14:20Z,42.805,6.029,13.2979,4.59982,2470.273,2021-1-10T05:15:21Z
2021-01-10T03:17:23Z,42.805,6.029,13.2977,4.59981,2470.25,2021-1-10T05:18:24Z
2021-01-10T03:20:26Z,42.805,6.029,13.2978,4.59982,2470.25,2021-1-10T05:21:27Z
2021-01-10T03:23:30Z,42.805,6.029,13.2974,4.59986,2470.25,2021-1-10T05:24:31Z
2021-01-10T03:26:33Z,42.805,6.029,13.2980,4.59985,2470.25,2021-1-10T05:27:34Z
2021-01-10T03:29:36Z,42.805,6.029,13.2981,4.59984,2470.273,2021-1-10T05:30:37Z
2021-01-10T03:32:39Z,42.805,6.029,13.2981,4.59985,2470.273,2021-1-10T05:33:40Z
2021-01-10T03:35:42Z,42.805,6.029,13.2975,4.59982,2470.25,2021-1-10T05:36:43Z
2021-01-10T03:38:45Z,42.805,6.029,13.2976,4.59986,2470.297,2021-1-10T05:39:46Z
2021-01-10T03:41:48Z,42.805,6.029,13.2976,4.59983,2470.273,2021-1-10T05:42:49Z
2021-01-10T03:44:51Z,42.805,6.029,13.2980,4.59981,2470.287,2021-1-10T05:45:52Z
2021-01-10T03:47:55Z,42.805,6.029,13.2976,4.59981,2470.26,2021-1-10T05:48:56Z
2021-01-10T03:50:58Z,42.805,6.029,13.2982,4.59982,2470.25,2021-1-10T05:51:59Z
2021-01-10T03:54:01Z,42.805,6.029,13.2979,4.59984,2470.287,2021-1-10T05:55:02Z
2021-01-10T03:57:04Z,42.805,6.029,13.2983,4.59983,2470.31,2021-1-10T05:58:05Z
2021-01-10T04:00:07Z,42.805,6.029,13.2976,4.59983,2470.25,2021-1-10T06:01:08Z
2021-01-10T04:03:10Z,42.805,6.029,13.2979,4.59993,2470.297,2021-1-10T06:04:11Z
2021-01-10T04:06:13Z,42.805,6.029,13.2982,4.59983,2470.297,2021-1-10T06:07:14Z
2021-01-10T04:09:16Z,42.805,6.029,13.2975,4.59988,2470.31,2021-1-10T06:10:17Z
2021-01-10T04:12:20Z,42.805,6.029,13.2979,4.59983,2470.297,2021-1-10T06:13:20Z
2021-01-10T04:15:23Z,42.805,6.029,13.2979,4.59986,2470.334,2021-1-10T06:16:24Z
2021-01-10T04:18:26Z,42.805,6.029,13.2979,4.59988,2470.273,2021-1-10T06:19:27Z
2021-01-10T04:21:29Z,42.805,6.029,13.2974,4.59987,2470.297,2021-1-10T06:22:30Z
2021-01-10T04:24:32Z,42.805,6.029,13.2975,4.59984,2470.31,2021-1-10T06:25:33Z
2021-01-10T04:27:35Z,42.805,6.029,13.2979,4.59985,2470.297,2021-1-10T06:28:36Z
2021-01-10T04:30:38Z,42.805,6.029,13.2976,4.59983,2470.297,2021-1-10T06:31:39Z
2021-01-10T04:33:41Z,42.805,6.029,13.2982,4.59984,2470.32,2021-1-10T06:34:42Z
2021-01-10T04:36:44Z,42.805,6.029,13.2981,4.59983,2470.31,2021-1-10T06:37:45Z
2021-01-10T04:39:48Z,42.805,6.029,13.2979,4.59983,2470.31,2021-1-10T06:40:49Z
2021-01-10T04:42:51Z,42.805,6.029,13.2980,4.59987,2470.334,2021-1-10T06:43:52Z
2021-01-10T04:45:54Z,42.805,6.029,13.2979,4.59986,2470.334,2021-1-10T06:46:55Z
2021-01-10T04:48:57Z,42.805,6.029,13.2979,4.59983,2470.297,2021-1-10T06:49:58Z
2021-01-10T04:52:00Z,42.805,6.029,13.2977,4.59983,2470.297,2021-1-10T06:53:01Z
2021-01-10T04:55:03Z,42.805,6.029,13.2977,4.59984,2470.334,2021-1-10T06:56:04Z
2021-01-10T04:58:06Z,42.805,6.029,13.2975,4.59983,2470.334,2021-1-10T06:59:07Z
2021-01-10T05:01:09Z,42.805,6.029,13.2983,4.59983,2470.334,2021-1-10T07:02:10Z
2021-01-10T05:04:13Z,42.805,6.029,13.2983,4.59980,2470.32,2021-1-10T07:05:14Z
2021-01-10T05:07:16Z,42.805,6.029,13.2979,4.59993,2470.343,2021-1-10T07:08:17Z
2021-01-10T05:10:19Z,42.805,6.029,13.2976,4.59981,2470.31,2021-1-10T07:11:20Z
2021-01-10T05:13:22Z,42.805,6.029,13.2980,4.59981,2470.32,2021-1-10T07:14:23Z
2021-01-10T05:16:25Z,42.805,6.029,13.2975,4.59985,2470.32,2021-1-10T07:17:26Z
2021-01-10T05:19:28Z,42.805,6.029,13.2980,4.59981,2470.31,2021-1-10T07:20:29Z
2021-01-10T05:22:31Z,42.805,6.029,13.2980,4.59981,2470.334,2021-1-10T07:23:32Z
2021-01-10T05:25:34Z,42.805,6.029,13.2974,4.59981,2470.297,2021-1-10T07:26:35Z
2021-01-10T05:28:38Z,42.805,6.029,13.2976,4.59981,2470.32,2021-1-10T07:29:39Z
2021-01-10T05:31:41Z,42.805,6.029,13.2977,4.59985,2470.31,2021-1-10T07:32:42Z
2021-01-10T05:34:44Z,42.805,6.029,13.2976,4.59987,2470.343,2021-1-10T07:35:45Z
2021-01-10T05:37:47Z,42.805,6.029,13.2979,4.59982,2470.32,2021-1-10T07:38:48Z
2021-01-10T05:40:50Z,42.805,6.029,13.2977,4.59981,2470.32,2021-1-10T07:41:51Z
2021-01-10T05:43:53Z,42.805,6.029,13.2978,4.59985,2470.334,2021-1-10T07:44:54Z
2021-01-10T05:46:56Z,42.805,6.029,13.2976,4.59983,2470.334,2021-1-10T07:47:57Z
2021-01-10T05:49:59Z,42.805,6.029,13.2979,4.59991,2470.334,2021-1-10T07:51:00Z
2021-01-10T05:53:03Z,42.805,6.029,13.2974,4.59983,2470.297,2021-1-10T07:54:04Z
2021-01-10T05:56:06Z,42.805,6.029,13.2981,4.59991,2470.297,2021-1-10T07:57:07Z
2021-01-10T05:59:09Z,42.805,6.029,13.2979,4.59988,2470.32,2021-1-10T08:00:10Z
2021-01-10T06:02:12Z,42.805,6.029,13.2981,4.59986,2470.334,2021-1-10T08:03:13Z
2021-01-10T06:05:15Z,42.805,6.029,13.2979,4.59988,2470.297,2021-1-10T08:06:16Z
2021-01-10T06:08:18Z,42.805,6.029,13.2979,4.59982,2470.31,2021-1-10T08:09:19Z
2021-01-10T06:11:21Z,42.805,6.029,13.2977,4.59983,2470.297,2021-1-10T08:12:22Z
2021-01-10T06:14:24Z,42.805,6.029,13.2981,4.59982,2470.31,2021-1-10T08:15:25Z
2021-01-10T06:17:28Z,42.805,6.029,13.2976,4.59983,2470.334,2021-1-10T08:18:29Z
2021-01-10T06:20:31Z,42.805,6.029,13.2978,4.59981,2470.297,2021-1-10T08:21:32Z
2021-01-10T06:23:34Z,42.805,6.029,13.2979,4.59981,2470.31,2021-1-10T08:24:35Z
2021-01-10T06:26:37Z,42.805,6.029,13.2979,4.59987,2470.297,2021-1-10T08:27:38Z
2021-01-10T06:29:40Z,42.805,6.029,13.2976,4.59987,2470.297,2021-1-10T08:30:41Z
2021-01-10T06:32:43Z,42.805,6.029,13.2973,4.59986,2470.31,2021-1-10T08:33:44Z
2021-01-10T06:35:46Z,42.805,6.029,13.2979,4.59983,2470.273,2021-1-10T08:36:47Z
2021-01-10T06:38:49Z,42.805,6.029,13.2980,4.59983,2470.31,2021-1-10T08:39:50Z
2021-01-10T06:41:53Z,42.805,6.029,13.2975,4.59983,2470.31,2021-1-10T08:42:54Z
2021-01-10T06:44:56Z,42.805,6.029,13.2974,4.59984,2470.31,2021-1-10T08:45:57Z
2021-01-10T06:47:59Z,42.805,6.029,13.2976,4.59988,2470.297,2021-1-10T08:49:00Z
2021-01-10T06:51:02Z,42.805,6.029,13.2977,4.59983,2470.273,2021-1-10T08:52:03Z
2021-01-10T06:54:05Z,42.805,6.029,13.2974,4.59980,2470.297,2021-1-10T08:55:06Z
2021-01-10T06:57:08Z,42.805,6.029,13.2976,4.59981,2470.334,2021-1-10T08:58:09Z
2021-01-10T07:00:11Z,42.805,6.029,13.2975,4.59986,2470.273,2021-1-10T09:01:12Z
2021-01-10T07:03:14Z,42.805,6.029,13.2976,4.59986,2470.297,2021-1-10T09:04:15Z
2021-01-10T07:06:18Z,42.805,6.029,13.2976,4.59983,2470.273,2021-1-10T09:07:19Z
2021-01-10T07:09:21Z,42.805,6.029,13.2972,4.59984,2470.273,2021-1-10T09:10:22Z
2021-01-10T07:12:24Z,42.805,6.029,13.2979,4.59988,2470.25,2021-1-10T09:13:25Z
2021-01-10T07:15:27Z,42.805,6.029,13.2979,4.59983,2470.287,2021-1-10T09:16:28Z
2021-01-10T07:18:30Z,42.805,6.029,13.2979,4.59986,2470.31,2021-1-10T09:19:31Z
2021-01-10T07:21:33Z,42.805,6.029,13.2979,4.59981,2470.287,2021-1-10T09:22:34Z
2021-01-10T07:24:36Z,42.805,6.029,13.2978,4.59982,2470.25,2021-1-10T09:25:37Z
2021-01-10T07:27:39Z,42.805,6.029,13.2977,4.59982,2470.25,2021-1-10T09:28:40Z
2021-01-10T07:30:43Z,42.805,6.029,13.2978,4.59982,2470.25,2021-1-10T09:31:44Z
2021-01-10T07:33:46Z,42.805,6.029,13.2976,4.59982,2470.264,2021-1-10T09:34:47Z
2021-01-10T07:36:49Z,42.805,6.029,13.2979,4.59986,2470.31,2021-1-10T09:37:50Z
2021-01-10T07:39:52Z,42.805,6.029,13.2976,4.59986,2470.25,2021-1-10T09:40:53Z
2021-01-10T07:42:55Z,42.805,6.029,13.2978,4.59981,2470.287,2021-1-10T09:43:56Z
2021-01-10T07:45:58Z,42.805,6.029,13.2978,4.59981,2470.25,2021-1-10T09:46:59Z
2021-01-10T07:49:01Z,42.805,6.029,13.2976,4.59982,2470.273,2021-1-10T09:50:02Z
2021-01-10T07:52:04Z,42.805,6.029,13.2976,4.59981,2470.31,2021-1-10T09:53:05Z
2021-01-10T07:55:08Z,42.805,6.029,13.2978,4.59982,2470.31,2021-1-10T09:56:09Z
2021-01-10T07:58:11Z,42.805,6.029,13.2976,4.59981,2470.273,2021-1-10T09:59:12Z
2021-01-10T08:01:14Z,42.805,6.029,13.2979,4.59982,2470.31,2021-1-10T10:02:15Z
2021-01-10T08:04:17Z,42.805,6.029,13.2979,4.59981,2470.273,2021-1-10T10:05:18Z
2021-01-10T08:07:20Z,42.805,6.029,13.2976,4.59982,2470.287,2021-1-10T10:08:21Z
2021-01-10T08:10:23Z,42.805,6.029,13.2979,4.59983,2470.227,2021-1-10T10:11:24Z
2021-01-10T08:13:26Z,42.805,6.029,13.2979,4.59981,2470.31,2021-1-10T10:14:27Z
2021-01-10T08:16:29Z,42.805,6.029,13.2976,4.59982,2470.287,2021-1-10T10:17:30Z
2021-01-10T08:19:33Z,42.805,6.029,13.2979,4.59986,2470.25,2021-1-10T10:20:34Z
2021-01-10T08:22:36Z,42.805,6.029,13.2977,4.59983,2470.273,2021-1-10T10:23:37Z
2021-01-10T08:25:39Z,42.805,6.029,13.2979,4.59982,2470.287,2021-1-10T10:26:40Z
2021-01-10T08:28:42Z,42.805,6.029,13.2977,4.59981,2470.287,2021-1-10T10:29:43Z
2021-01-10T08:31:45Z,42.805,6.029,13.2976,4.59982,2470.25,2021-1-10T10:32:46Z
2021-01-10T08:34:48Z,42.805,6.029,13.2978,4.59983,2470.25,2021-1-10T10:35:49Z
2021-01-10T08:37:51Z,42.805,6.029,13.2979,4.59982,2470.273,2021-1-10T10:38:52Z
2021-01-10T08:40:54Z,42.805,6.029,13.2978,4.59982,2470.287,2021-1-10T10:41:55Z
2021-01-10T08:43:58Z,42.805,6.029,13.2981,4.59981,2470.273,2021-1-10T10:44:59Z
2021-01-10T08:47:01Z,42.805,6.029,13.2978,4.59982,2470.24,2021-1-10T10:48:02Z
2021-01-10T08:50:04Z,42.805,6.029,13.2977,4.59986,2470.25,2021-1-10T10:51:05Z
2021-01-10T08:53:07Z,42.805,6.029,13.2974,4.59986,2470.273,2021-1-10T10:54:08Z
2021-01-10T08:56:10Z,42.805,6.029,13.2979,4.59982,2470.25,2021-1-10T10:57:11Z
2021-01-10T08:59:13Z,42.805,6.029,13.2979,4.59986,2470.227,2021-1-10T11:00:14Z
2021-01-10T09:02:16Z,42.805,6.029,13.2973,4.59981,2470.25,2021-1-10T11:03:17Z
2021-01-10T09:05:19Z,42.805,6.029,13.2982,4.59981,2470.264,2021-1-10T11:06:20Z
2021-01-10T09:08:23Z,42.805,6.029,13.2976,4.59981,2470.227,2021-1-10T11:09:24Z
2021-01-10T09:11:26Z,42.805,6.029,13.2977,4.59983,2470.25,2021-1-10T11:12:27Z
2021-01-10T09:14:29Z,42.805,6.029,13.2983,4.59981,2470.203,2021-1-10T11:15:30Z
2021-01-10T09:17:32Z,42.805,6.029,13.2982,4.59981,2470.227,2021-1-10T11:18:33Z
2021-01-10T09:20:35Z,42.805,6.029,13.2979,4.59985,2470.25,2021-1-10T11:21:36Z
2021-01-10T09:23:38Z,42.805,6.029,13.2982,4.59984,2470.203,2021-1-10T11:24:39Z
2021-01-10T09:26:41Z,42.805,6.029,13.2975,4.59981,2470.227,2021-1-10T11:27:42Z
2021-01-10T09:29:44Z,42.805,6.029,13.2979,4.59981,2470.203,2021-1-10T11:30:45Z
2021-01-10T09:32:48Z,42.805,6.029,13.2983,4.59982,2470.24,2021-1-10T11:33:49Z
2021-01-10T09:35:51Z,42.805,6.029,13.2979,4.59982,2470.24,2021-1-10T11:36:52Z
2021-01-10T09:38:54Z,42.805,6.029,13.2978,4.59981,2470.227,2021-1-10T11:39:55Z
2021-01-10T09:41:57Z,42.805,6.029,13.2982,4.59982,2470.203,2021-1-10T11:42:58Z
2021-01-10T09:45:00Z,42.805,6.029,13.2979,4.59981,2470.203,2021-1-10T11:46:01Z
2021-01-10T09:48:03Z,42.805,6.029,13.2978,4.59984,2470.227,2021-1-10T11:49:04Z
2021-01-10T09:51:06Z,42.805,6.029,13.2976,4.59980,2470.25,2021-1-10T11:52:07Z
2021-01-10T09:54:09Z,42.805,6.029,13.2976,4.59980,2470.24,2021-1-10T11:55:10Z
2021-01-10T09:57:13Z,42.805,6.029,13.2975,4.59981,2470.227,2021-1-10T11:58:14Z
2021-01-10T10:00:16Z,42.805,6.029,13.2979,4.59981,2470.227,2021-1-10T12:01:17Z
2021-01-10T10:03:19Z,42.805,6.029,13.2979,4.59981,2470.203,2021-1-10T12:04:20Z
2021-01-10T10:06:22Z,42.805,6.029,13.2976,4.59987,2470.203,2021-1-10T12:07:23Z
2021-01-10T10:09:25Z,42.805,6.029,13.2979,4.59981,2470.227,2021-1-10T12:10:26Z
2021-01-10T10:12:28Z,42.805,6.029,13.2978,4.59980,2470.227,2021-1-10T12:13:29Z
2021-01-10T10:15:31Z,42.805,6.029,13.2979,4.59982,2470.24,2021-1-10T12:16:32Z
2021-01-10T10:18:35Z,42.805,6.029,13.2978,4.59980,2470.203,2021-1-10T12:19:36Z
2021-01-10T10:21:38Z,42.805,6.029,13.2976,4.59980,2470.203,2021-1-10T12:22:39Z
2021-01-10T10:24:41Z,42.805,6.029,13.2975,4.59980,2470.217,2021-1-10T12:25:42Z
2021-01-10T10:27:44Z,42.805,6.029,13.2974,4.59980,2470.227,2021-1-10T12:28:45Z
2021-01-10T10:30:47Z,42.805,6.029,13.2981,4.59980,2470.217,2021-1-10T12:31:48Z
2021-01-10T10:33:50Z,42.805,6.029,13.2979,4.59980,2470.227,2021-1-10T12:34:51Z
2021-01-10T10:36:53Z,42.805,6.029,13.2978,4.59985,2470.203,2021-1-10T12:37:54Z
2021-01-10T10:39:56Z,42.805,6.029,13.2976,4.59980,2470.217,2021-1-10T12:40:57Z
2021-01-10T10:43:00Z,42.805,6.029,13.2982,4.59981,2470.18,2021-1-10T12:44:01Z
2021-01-10T10:46:03Z,42.805,6.029,13.2980,4.59981,2470.217,2021-1-10T12:47:04Z
2021-01-10T10:49:06Z,42.805,6.029,13.2978,4.59982,2470.203,2021-1-10T12:50:07Z
2021-01-10T10:52:09Z,42.805,6.029,13.2983,4.59981,2470.217,2021-1-10T12:53:10Z
2021-01-10T10:55:12Z,42.805,6.029,13.2979,4.59981,2470.203,2021-1-10T12:56:13Z
2021-01-10T10:58:15Z,42.805,6.029,13.2978,4.59980,2470.203,2021-1-10T12:59:16Z
2021-01-10T11:01:18Z,42.805,6.029,13.2977,4.59981,2470.18,2021-1-10T13:02:19Z
2021-01-10T11:04:21Z,42.805,6.029,13.2980,4.59980,2470.24,2021-1-10T13:05:22Z
2021-01-10T11:07:25Z,42.805,6.029,13.2979,4.59980,2470.194,2021-1-10T13:08:26Z
2021-01-10T11:10:28Z,42.805,6.029,13.2974,4.59980,2470.217,2021-1-10T13:11:29Z
2021-01-10T11:13:31Z,42.805,6.029,13.2979,4.59982,2470.203,2021-1-10T13:14:32Z
2021-01-10T11:16:34Z,42.805,6.029,13.2980,4.59983,2470.203,2021-1-10T13:17:35Z
2021-01-10T11:19:37Z,42.805,6.029,13.2982,4.59981,2470.194,2021-1-10T13:20:38Z
2021-01-10T11:22:40Z,42.805,6.029,13.2978,4.59979,2470.166,2021-1-10T13:23:41Z
2021-01-10T11:25:43Z,42.805,6.029,13.2981,4.59981,2470.18,2021-1-10T13:26:44Z
2021-01-10T11:28:46Z,42.805,6.029,13.2979,4.59981,2470.156,2021-1-10T13:29:47Z
2021-01-10T11:31:50Z,42.805,6.029,13.2976,4.59980,2470.203,2021-1-10T13:32:51Z
2021-01-10T11:34:53Z,42.805,6.029,13.2979,4.59981,2470.203,2021-1-10T13:35:54Z
2021-01-10T11:37:56Z,42.805,6.029,13.2979,4.59980,2470.18,2021-1-10T13:38:57Z
2021-01-10T11:40:59Z,42.805,6.029,13.2976,4.59980,2470.217,2021-1-10T13:42:00Z
2021-01-10T11:44:02Z,42.805,6.029,13.2973,4.59980,2470.217,2021-1-10T13:45:03Z
2021-01-10T11:47:05Z,42.805,6.029,13.2979,4.59980,2470.203,2021-1-10T13:48:06Z
2021-01-10T11:50:08Z,42.805,6.029,13.2979,4.59980,2470.217,2021-1-10T13:51:09Z
2021-01-10T11:53:11Z,42.805,6.029,13.2980,4.59985,2470.194,2021-1-10T13:54:12Z
2021-01-10T11:56:15Z,42.805,6.029,13.2978,4.59981,2470.203,2021-1-10T13:57:16Z
2021-01-10T11:59:18Z,42.805,6.029,13.2974,4.59981,2470.171,2021-1-10T14:00:19Z
2021-01-10T12:02:21Z,42.805,6.029,13.2978,4.59979,2470.194,2021-1-10T14:03:22Z
2021-01-10T12:05:24Z,42.805,6.029,13.2975,4.59982,2470.18,2021-1-10T14:06:25Z
2021-01-10T12:08:27Z,42.805,6.029,13.2974,4.59980,2470.18,2021-1-10T14:09:28Z
2021-01-10T12:11:30Z,42.805,6.029,13.2977,4.59980,2470.217,2021-1-10T14:12:31Z
2021-01-10T12:14:33Z,42.805,6.029,13.2979,4.59980,2470.18,2021-1-10T14:15:34Z
2021-01-10T12:17:36Z,42.805,6.029,13.2983,4.59982,2470.166,2021-1-10T14:18:37Z
2021-01-10T12:20:40Z,42.805,6.029,13.2981,4.59981,2470.194,2021-1-10T14:21:41Z
2021-01-10T12:23:43Z,42.805,6.029,13.2977,4.59980,2470.194,2021-1-10T14:24:44Z
2021-01-10T12:26:46Z,42.805,6.029,13.2978,4.59981,2470.171,2021-1-10T14:27:47Z
2021-01-10T12:29:49Z,42.805,6.029,13.2978,4.59981,2470.203,2021-1-10T14:30:50Z
2021-01-10T12:32:52Z,42.805,6.029,13.2975,4.59981,2470.203,2021-1-10T14:33:53Z
2021-01-10T12:35:55Z,42.805,6.029,13.2977,4.59986,2470.203,2021-1-10T14:36:56Z
2021-01-10T12:38:58Z,42.805,6.029,13.2977,4.59980,2470.203,2021-1-10T14:39:59Z
2021-01-10T12:42:01Z,42.805,6.029,13.2978,4.59981,2470.203,2021-1-10T14:43:02Z
2021-01-10T12:45:05Z,42.805,6.029,13.2976,4.59981,2470.227,2021-1-10T14:46:06Z
2021-01-10T12:48:08Z,42.805,6.029,13.2977,4.59980,2470.194,2021-1-10T14:49:09Z
2021-01-10T12:51:11Z,42.805,6.029,13.2979,4.59982,2470.217,2021-1-10T14:52:12Z
2021-01-10T12:54:14Z,42.805,6.029,13.2981,4.59979,2470.227,2021-1-10T14:55:15Z
2021-01-10T12:57:17Z,42.805,6.029,13.2977,4.59980,2470.203,2021-1-10T14:58:18Z
2021-01-10T13:00:20Z,42.805,6.029,13.2976,4.59980,2470.227,2021-1-10T15:01:21Z
2021-01-10T13:03:23Z,42.805,6.029,13.2974,4.59981,2470.18,2021-1-10T15:04:24Z
2021-01-10T13:06:26Z,42.805,6.029,13.2977,4.59980,2470.203,2021-1-10T15:07:27Z
2021-01-10T13:09:30Z,42.805,6.029,13.2977,4.59980,2470.217,2021-1-10T15:10:31Z
2021-01-10T13:12:33Z,42.805,6.029,13.2980,4.59980,2470.217,2021-1-10T15:13:34Z
2021-01-10T13:15:36Z,42.805,6.029,13.2978,4.59981,2470.227,2021-1-10T15:16:37Z
2021-01-10T13:18:39Z,42.805,6.029,13.2982,4.59979,2470.24,2021-1-10T15:19:40Z
2021-01-10T13:21:42Z,42.805,6.029,13.2978,4.59980,2470.203,2021-1-10T15:22:43Z
2021-01-10T13:24:45Z,42.805,6.029,13.2978,4.59980,2470.217,2021-1-10T15:25:46Z
2021-01-10T13:27:48Z,42.805,6.029,13.2976,4.59980,2470.18,2021-1-10T15:28:49Z
2021-01-10T13:30:52Z,42.805,6.029,13.2977,4.59981,2470.194,2021-1-10T15:31:53Z
2021-01-10T13:33:55Z,42.805,6.029,13.2985,4.59983,2470.25,2021-1-10T15:34:56Z
2021-01-10T13:36:58Z,42.805,6.029,13.2982,4.59981,2470.18,2021-1-10T15:37:59Z
2021-01-10T13:40:01Z,42.805,6.029,13.2983,4.59983,2470.217,2021-1-10T15:41:02Z
2021-01-10T13:43:04Z,42.805,6.029,13.2979,4.59981,2470.217,2021-1-10T15:44:05Z
2021-01-10T13:46:07Z,42.805,6.029,13.2979,4.59982,2470.203,2021-1-10T15:47:08Z
2021-01-10T13:49:10Z,42.805,6.029,13.2976,4.59980,2470.24,2021-1-10T15:50:11Z
2021-01-10T13:52:13Z,42.805,6.029,13.2980,4.59980,2470.217,2021-1-10T15:53:14Z
2021-01-10T13:55:17Z,42.805,6.029,13.2981,4.59981,2470.24,2021-1-10T15:56:18Z
2021-01-10T13:58:20Z,42.805,6.029,13.2978,4.59981,2470.194,2021-1-10T15:59:21Z
2021-01-10T14:01:23Z,42.805,6.029,13.2974,4.59979,2470.227,2021-1-10T16:02:24Z
2021-01-10T14:04:26Z,42.805,6.029,13.2979,4.59980,2470.227,2021-1-10T16:05:27Z
2021-01-10T14:07:29Z,42.805,6.029,13.2978,4.59979,2470.217,2021-1-10T16:08:30Z
2021-01-10T14:10:32Z,42.805,6.029,13.2978,4.59980,2470.227,2021-1-10T16:11:33Z
2021-01-10T14:13:35Z,42.805,6.029,13.2978,4.59981,2470.203,2021-1-10T16:14:36Z
2021-01-10T14:16:38Z,42.805,6.029,13.2977,4.59983,2470.25,2021-1-10T16:17:39Z
2021-01-10T14:19:42Z,42.805,6.029,13.2977,4.59980,2470.227,2021-1-10T16:20:43Z
2021-01-10T14:22:45Z,42.805,6.029,13.2979,4.59980,2470.227,2021-1-10T16:23:46Z
2021-01-10T14:25:48Z,42.805,6.029,13.2977,4.59980,2470.273,2021-1-10T16:26:49Z
2021-01-10T14:28:51Z,42.805,6.029,13.2976,4.59981,2470.25,2021-1-10T16:29:52Z
2021-01-10T14:31:54Z,42.805,6.029,13.2975,4.59981,2470.264,2021-1-10T16:32:55Z
2021-01-10T14:34:57Z,42.805,6.029,13.2979,4.59981,2470.24,2021-1-10T16:35:58Z
2021-01-10T14:38:00Z,42.805,6.029,13.2980,4.59981,2470.264,2021-1-10T16:39:01Z
2021-01-10T14:41:04Z,42.805,6.029,13.2976,4.59980,2470.25,2021-1-10T16:42:05Z
2021-01-10T14:44:07Z,42.805,6.029,13.2979,4.59981,2470.25,2021-1-10T16:45:08Z
2021-01-10T14:47:10Z,42.805,6.029,13.2978,4.59981,2470.264,2021-1-10T16:48:11Z
2021-01-10T14:50:13Z,42.805,6.029,13.2977,4.59979,2470.287,2021-1-10T16:51:14Z
2021-01-10T14:53:16Z,42.805,6.029,13.2977,4.59980,2470.287,2021-1-10T16:54:17Z
2021-01-10T14:56:19Z,42.805,6.029,13.2977,4.59980,2470.25,2021-1-10T16:57:20Z
2021-01-10T14:59:22Z,42.805,6.029,13.2975,4.59979,2470.25,2021-1-10T17:00:23Z
2021-01-10T15:02:25Z,42.805,6.029,13.2976,4.59981,2470.25,2021-1-10T17:03:26Z
2021-01-10T15:05:29Z,42.805,6.029,13.2977,4.59981,2470.287,2021-1-10T17:06:30Z
2021-01-10T15:08:32Z,42.805,6.029,13.2979,4.59986,2470.273,2021-1-10T17:09:33Z
2021-01-10T15:11:35Z,42.805,6.029,13.2980,4.59985,2470.273,2021-1-10T17:12:36Z
2021-01-10T15:14:38Z,42.805,6.029,13.2976,4.59983,2470.273,2021-1-10T17:15:39Z